Location: Waco, TX
(31.5480°N, 97.1670°W)
Time: 00:32:27
(UTC-06:00)

ISS - Pass Details

Date: 13 December 2017
Orbit: 403 x 407 km, 51.6° (Epoch: 12 December)

Event Time Altitude Azimuth Distance (km) Brightness Sun altitude
Rises 12:17:37 0° 243° (WSW) 2,313 0.3 35.2°
Reaches altitude 10° 12:19:49 10° 254° (WSW) 1,457 -0.7 35.3°
Maximum altitude 12:22:48 32° 320° (NW) 716 -2.7 35.3°
Drops below altitude 10° 12:25:48 10° 26° (NNE) 1,464 -1.4 35.3°
Sets 12:28:01 0° 36° (NE) 2,326 -0.4 35.2°
